,,,PA_Meas_PMT16A,,PR_Meas_QMR101_102,,RH_Meas_QMH101,,SR_Meas_QMS101,,TA_Meas_QMH101,,GenWind,,GenWind,
date,time,status,PA,status,PR,status,RH,status,SR,status,TA,status,DirAvg,status,SpdAvg,
2011-12-26, 00:00:04,VALID,999.069,VALID,0,VALID,92.3184,VALID,0,VALID,24.2671,VALID,347,VALID,0.934375,
2011-12-26, 00:01:04,VALID,999.083,VALID,0,VALID,92.3031,VALID,0,VALID,24.2281,VALID,348,VALID,1.32383,
2011-12-26, 00:02:04,VALID,999.078,VALID,0,VALID,92.2497,VALID,0,VALID,24.2086,VALID,342,VALID,1.23867,
2011-12-26, 00:03:04,VALID,999.059,VALID,0,VALID,92.265,VALID,0,VALID,24.1872,VALID,351,VALID,1.0457,
2011-12-26, 00:04:04,VALID,999.098,VALID,0,VALID,92.3337,VALID,0,VALID,24.2281,VALID,351,VALID,0.514063,
2011-12-26, 00:05:04,VALID,999.092,VALID,0,VALID,92.3794,VALID,0,VALID,24.1891,VALID,343,VALID,1.00469,
2011-12-26, 00:06:04,VALID,999.084,VALID,0,VALID,92.4328,VALID,0,VALID,24.1891,VALID,343,VALID,0.444922,
2011-12-26, 00:07:04,VALID,999.081,VALID,0,VALID,92.4939,VALID,0,VALID,24.1891,VALID,343,VALID,0.221484,
2011-12-26, 00:08:04,VALID,999.049,VALID,0,VALID,92.4939,VALID,0,VALID,24.1287,VALID,343,VALID,0.430859,
2011-12-26, 00:09:04,VALID,999.074,VALID,0,VALID,92.5015,VALID,0,VALID,24.1287,VALID,344,VALID,0,
2011-12-26, 00:10:04,VALID,999.081,VALID,0,VALID,92.532,VALID,0,VALID,24.1092,VALID,343,VALID,0,
2011-12-26, 00:11:04,VALID,999.093,VALID,0,VALID,92.5626,VALID,0,VALID,24.1305,VALID,351,VALID,0.847656,
2011-12-26, 00:12:04,VALID,999.072,VALID,0,VALID,92.6617,VALID,0,VALID,24.1305,VALID,321,VALID,0.223438,
2011-12-26, 00:13:04,VALID,999.048,VALID,0,VALID,92.677,VALID,0,VALID,24.15,VALID,316,VALID,0.798437,
2011-12-26, 00:14:04,VALID,999.005,VALID,0,VALID,92.6541,VALID,0,VALID,24.111,VALID,316,VALID,0.658203,
2011-12-26, 00:15:04,VALID,999.046,VALID,0,VALID,92.677,VALID,0,VALID,24.1287,VALID,297,VALID,0.598828,
2011-12-26, 00:16:04,VALID,999.03,VALID,0,VALID,92.7075,VALID,0,VALID,24.1092,VALID,323,VALID,0.896094,
2011-12-26, 00:17:04,VALID,999.006,VALID,0,VALID,92.7228,VALID,0,VALID,24.1305,VALID,314,VALID,1.2543,
2011-12-26, 00:18:04,VALID,999.022,VALID,0,VALID,92.7228,VALID,0,VALID,24.1305,VALID,328,VALID,0.919141,
2011-12-26, 00:19:04,VALID,999.003,VALID,0,VALID,92.738,VALID,0,VALID,24.1092,VALID,282,VALID,0.732422,
2011-12-26, 00:20:04,VALID,999.002,VALID,0,VALID,92.7457,VALID,0,VALID,24.1092,VALID,284,VALID,1.19922,
2011-12-26, 00:21:04,VALID,998.997,VALID,0,VALID,92.7533,VALID,0,VALID,24.15,VALID,301,VALID,0.478516,
2011-12-26, 00:22:04,VALID,998.978,VALID,0,VALID,92.7991,VALID,0,VALID,24.15,VALID,271,VALID,0.493359,
2011-12-26, 00:23:04,VALID,998.997,VALID,0.5,VALID,92.822,VALID,0,VALID,24.15,VALID,280,VALID,0.742578,
2011-12-26, 00:24:04,VALID,998.979,VALID,0,VALID,92.7609,VALID,0,VALID,24.1305,VALID,288,VALID,0.244922,
2011-12-26, 00:25:04,VALID,999.021,VALID,0,VALID,92.7609,VALID,0,VALID,24.1305,VALID,288,VALID,0.339063,
2011-12-26, 00:26:04,VALID,999.003,VALID,0.5,VALID,92.7151,VALID,0,VALID,24.111,VALID,288,VALID,0.00742187,
2011-12-26, 00:27:04,VALID,999.017,VALID,0,VALID,92.7151,VALID,0,VALID,24.111,VALID,267,VALID,0.646875,
2011-12-26, 00:28:04,VALID,998.998,VALID,0,VALID,92.7304,VALID,0,VALID,24.111,VALID,268,VALID,0.496875,
2011-12-26, 00:29:04,VALID,999.013,VALID,0.5,VALID,92.7914,VALID,0,VALID,24.0915,VALID,268,VALID,0.315625,
2011-12-26, 00:30:04,VALID,998.964,VALID,0,VALID,92.822,VALID,0,VALID,24.0915,VALID,290,VALID,0.898828,
2011-12-26, 00:31:04,VALID,998.948,VALID,0,VALID,92.8601,VALID,0,VALID,24.0701,VALID,292,VALID,0.513672,
2011-12-26, 00:32:04,VALID,998.949,VALID,0,VALID,92.8525,VALID,0,VALID,24.0915,VALID,315,VALID,0.470313,
2011-12-26, 00:33:04,VALID,998.929,VALID,0,VALID,92.8754,VALID,0,VALID,24.072,VALID,315,VALID,0.288672,
2011-12-26, 00:34:04,VALID,998.95,VALID,0,VALID,92.8677,VALID,0,VALID,24.0311,VALID,303,VALID,0.680469,
2011-12-26, 00:35:04,VALID,998.932,VALID,0.5,VALID,92.8983,VALID,0,VALID,24.0525,VALID,316,VALID,0.283984,
2011-12-26, 00:36:04,VALID,998.953,VALID,0,VALID,92.9288,VALID,0,VALID,24.0311,VALID,316,VALID,0.311719,
2011-12-26, 00:37:04,VALID,998.94,VALID,0,VALID,92.9211,VALID,0,VALID,24.0116,VALID,316,VALID,0.157813,
2011-12-26, 00:38:04,VALID,998.991,VALID,0,VALID,92.9822,VALID,0,VALID,24.0116,VALID,316,VALID,0.317969,
2011-12-26, 00:39:04,VALID,998.943,VALID,0,VALID,93.0051,VALID,0,VALID,24.0116,VALID,276,VALID,0.506641,
2011-12-26, 00:40:04,VALID,998.919,VALID,0.5,VALID,93.028,VALID,0,VALID,24.0116,VALID,276,VALID,0.535156,
2011-12-26, 00:41:04,VALID,998.903,VALID,0,VALID,93.0432,VALID,0,VALID,23.9921,VALID,276,VALID,0.636719,
2011-12-26, 00:42:04,VALID,998.892,VALID,0,VALID,93.0966,VALID,0,VALID,23.9921,VALID,281,VALID,0.687891,
2011-12-26, 00:43:04,VALID,998.871,VALID,0,VALID,93.0966,VALID,0,VALID,23.9921,VALID,304,VALID,0.611328,
2011-12-26, 00:44:04,VALID,998.873,VALID,0,VALID,93.1119,VALID,0,VALID,23.9939,VALID,311,VALID,0.615625,
2011-12-26, 00:45:04,VALID,998.835,VALID,0,VALID,93.1195,VALID,0,VALID,23.9531,VALID,310,VALID,0.63125,
2011-12-26, 00:46:04,VALID,998.831,VALID,0,VALID,93.1119,VALID,0,VALID,23.9531,VALID,325,VALID,0.74375,
2011-12-26, 00:47:04,VALID,998.785,VALID,0.5,VALID,93.1424,VALID,0.104696,VALID,23.9531,VALID,339,VALID,1.05313,
2011-12-26, 00:48:04,VALID,998.751,VALID,0,VALID,93.1805,VALID,0,VALID,23.9549,VALID,344,VALID,0.848047,
2011-12-26, 00:49:04,VALID,998.713,VALID,0,VALID,93.2111,VALID,0,VALID,23.9336,VALID,335,VALID,0.962109,
2011-12-26, 00:50:04,VALID,998.689,VALID,0,VALID,93.2187,VALID,0,VALID,23.9549,VALID,336,VALID,0.989062,
2011-12-26, 00:51:04,VALID,998.675,VALID,0,VALID,93.234,VALID,0,VALID,23.9549,VALID,334,VALID,0.947266,
2011-12-26, 00:52:04,VALID,998.612,VALID,0,VALID,93.2187,VALID,0,VALID,23.9549,VALID,318,VALID,0.691016,
2011-12-26, 00:53:04,VALID,998.573,VALID,0,VALID,93.2111,VALID,0,VALID,23.914,VALID,322,VALID,1.08516,
2011-12-26, 00:54:04,VALID,998.57,VALID,0,VALID,93.1958,VALID,0,VALID,23.914,VALID,302,VALID,0.951172,
2011-12-26, 00:55:04,VALID,998.527,VALID,0,VALID,93.1348,VALID,0,VALID,23.914,VALID,317,VALID,1.31445,
2011-12-26, 00:56:04,VALID,998.511,VALID,0,VALID,93.0966,VALID,0,VALID,23.9354,VALID,307,VALID,1.22695,
2011-12-26, 00:57:04,VALID,998.465,VALID,0,VALID,93.0661,VALID,0,VALID,23.9354,VALID,344,VALID,0.856641,
2011-12-26, 00:58:04,VALID,998.448,VALID,0,VALID,93.028,VALID,0,VALID,23.9159,VALID,332,VALID,0.623047,
2011-12-26, 00:59:04,VALID,998.458,VALID,0,VALID,93.028,VALID,0,VALID,23.9354,VALID,345,VALID,0.809375,
2011-12-26, 01:00:04,VALID,998.419,VALID,0,VALID,93.0203,VALID,0,VALID,23.914,VALID,333,VALID,0.828125,
2011-12-26, 01:01:04,VALID,998.407,VALID,0,VALID,92.9745,VALID,0,VALID,23.914,VALID,337,VALID,0.764063,
2011-12-26, 01:02:04,VALID,998.394,VALID,0,VALID,92.9745,VALID,0,VALID,23.9354,VALID,349,VALID,0.741797,
2011-12-26, 01:03:04,VALID,998.372,VALID,0,VALID,92.9211,VALID,0,VALID,23.9336,VALID,349,VALID,0.564844,
2011-12-26, 01:04:04,VALID,998.366,VALID,0,VALID,92.883,VALID,0,VALID,23.914,VALID,349,VALID,0.389062,
2011-12-26, 01:05:04,VALID,998.375,VALID,0,VALID,92.883,VALID,0,VALID,23.9336,VALID,349,VALID,0.617578,
2011-12-26, 01:06:04,VALID,998.396,VALID,0,VALID,92.8906,VALID,0,VALID,23.9336,VALID,349,VALID,0.583984,
2011-12-26, 01:07:04,VALID,998.346,VALID,0,VALID,92.8983,VALID,0,VALID,23.9336,VALID,349,VALID,0.434766,
2011-12-26, 01:08:04,VALID,998.347,VALID,0,VALID,92.9745,VALID,0,VALID,23.9336,VALID,349,VALID,0.524219,
2011-12-26, 01:09:04,VALID,998.329,VALID,0,VALID,92.9517,VALID,0,VALID,23.914,VALID,16,VALID,0.758203,
2011-12-26, 01:10:04,VALID,998.344,VALID,0.5,VALID,92.9822,VALID,0,VALID,23.9336,VALID,28,VALID,0.833594,
2011-12-26, 01:11:04,VALID,998.349,VALID,0,VALID,93.0051,VALID,0,VALID,23.9336,VALID,28,VALID,0.817187,
2011-12-26, 01:12:04,VALID,998.32,VALID,0,VALID,92.9898,VALID,0,VALID,23.914,VALID,29,VALID,1.06406,
2011-12-26, 01:13:04,VALID,998.323,VALID,0,VALID,92.9822,VALID,0,VALID,23.9336,VALID,20,VALID,1.00508,
2011-12-26, 01:14:04,VALID,998.342,VALID,0,VALID,92.9364,VALID,0,VALID,23.9336,VALID,26,VALID,1.13008,
2011-12-26, 01:15:04,VALID,998.332,VALID,0,VALID,92.944,VALID,0,VALID,23.9531,VALID,38,VALID,1.10078,
2011-12-26, 01:16:04,VALID,998.313,VALID,0,VALID,92.9974,VALID,0,VALID,23.9921,VALID,49,VALID,1.14102,
2011-12-26, 01:17:04,VALID,998.287,VALID,0,VALID,93.028,VALID,0,VALID,24.0116,VALID,49,VALID,0.766016,
2011-12-26, 01:18:04,VALID,998.254,VALID,0,VALID,93.0127,VALID,0,VALID,24.0116,VALID,49,VALID,0.577344,
2011-12-26, 01:19:04,VALID,998.231,VALID,0,VALID,93.0127,VALID,0,VALID,24.0116,VALID,49,VALID,0.138281,
2011-12-26, 01:20:04,VALID,998.15,VALID,0,VALID,93.028,VALID,0,VALID,24.0311,VALID,49,VALID,0.227734,
2011-12-26, 01:21:04,VALID,998.132,VALID,0,VALID,93.028,VALID,0,VALID,24.0311,VALID,49,VALID,0.307031,
2011-12-26, 01:22:04,VALID,998.065,VALID,0,VALID,93.0508,VALID,0,VALID,24.0311,VALID,49,VALID,0.259766,
2011-12-26, 01:23:04,VALID,998.026,VALID,0,VALID,93.0356,VALID,0,VALID,24.0311,VALID,49,VALID,0.08125,
2011-12-26, 01:24:04,VALID,997.987,VALID,0,VALID,93.0737,VALID,0,VALID,24.0311,VALID,70,VALID,0.592188,
2011-12-26, 01:25:04,VALID,997.924,VALID,0,VALID,93.0051,VALID,0,VALID,24.0116,VALID,96,VALID,0.484375,
2011-12-26, 01:26:04,VALID,997.919,VALID,0,VALID,92.9669,VALID,0,VALID,24.0116,VALID,96,VALID,0.298047,
2011-12-26, 01:27:04,VALID,997.879,VALID,0,VALID,92.9364,VALID,0.104696,VALID,24.0311,VALID,96,VALID,0.185937,
2011-12-26, 01:28:04,VALID,997.856,VALID,0,VALID,92.9211,VALID,0,VALID,24.0116,VALID,96,VALID,0.0390625,
2011-12-26, 01:29:04,VALID,997.836,VALID,0,VALID,92.8906,VALID,0,VALID,23.9921,VALID,96,VALID,0.222266,
2011-12-26, 01:30:04,VALID,997.809,VALID,0,VALID,92.883,VALID,0.104696,VALID,23.9921,VALID,96,VALID,0.575391,
2011-12-26, 01:31:04,VALID,997.729,VALID,0,VALID,92.8372,VALID,0,VALID,24.0134,VALID,96,VALID,0.475781,
2011-12-26, 01:32:04,VALID,997.729,VALID,0,VALID,92.883,VALID,0,VALID,24.0329,VALID,128,VALID,0.830078,
2011-12-26, 01:33:04,VALID,997.686,VALID,0,VALID,92.8677,VALID,0,VALID,24.0311,VALID,152,VALID,1.07383,
2011-12-26, 01:34:04,VALID,997.665,VALID,0,VALID,92.7075,VALID,0,VALID,24.0116,VALID,155,VALID,1.14727,
2011-12-26, 01:35:04,VALID,997.639,VALID,0,VALID,92.7609,VALID,0,VALID,24.0506,VALID,165,VALID,1.24102,
2011-12-26, 01:36:04,VALID,997.665,VALID,0,VALID,92.8525,VALID,0,VALID,24.0701,VALID,165,VALID,1.05156,
2011-12-26, 01:37:04,VALID,997.668,VALID,0,VALID,92.9135,VALID,0,VALID,24.0897,VALID,163,VALID,0.934766,
2011-12-26, 01:38:04,VALID,997.678,VALID,0,VALID,92.9898,VALID,0,VALID,24.1287,VALID,163,VALID,0.870313,
2011-12-26, 01:39:04,VALID,997.745,VALID,0,VALID,93.0356,VALID,0,VALID,24.1092,VALID,163,VALID,0.639063,
2011-12-26, 01:40:04,VALID,997.795,VALID,0,VALID,93.028,VALID,0,VALID,24.15,VALID,154,VALID,0.378125,
2011-12-26, 01:41:04,VALID,997.809,VALID,0,VALID,93.0661,VALID,0,VALID,24.1287,VALID,154,VALID,0.481641,
2011-12-26, 01:42:04,VALID,997.856,VALID,0,VALID,93.0508,VALID,0,VALID,24.1092,VALID,154,VALID,0.488281,
2011-12-26, 01:43:04,VALID,997.905,VALID,0,VALID,93.0508,VALID,0,VALID,24.0897,VALID,154,VALID,0.221094,
2011-12-26, 01:44:04,VALID,997.925,VALID,0,VALID,93.0661,VALID,0,VALID,24.0897,VALID,154,VALID,0.319531,
2011-12-26, 01:45:04,VALID,997.95,VALID,0,VALID,93.0661,VALID,0.104696,VALID,24.0701,VALID,154,VALID,0.303125,
2011-12-26, 01:46:04,VALID,997.967,VALID,0,VALID,93.1119,VALID,0,VALID,24.0701,VALID,154,VALID,0.287109,
2011-12-26, 01:47:04,VALID,997.99,VALID,0,VALID,93.1805,VALID,0,VALID,24.0506,VALID,154,VALID,0.282813,
2011-12-26, 01:48:04,VALID,997.965,VALID,0,VALID,93.1958,VALID,0.104696,VALID,24.0506,VALID,154,VALID,0.348047,
2011-12-26, 01:49:04,VALID,997.942,VALID,0,VALID,93.234,VALID,0.104696,VALID,24.0311,VALID,154,VALID,0.344141,
2011-12-26, 01:50:04,VALID,997.963,VALID,0,VALID,93.2874,VALID,0,VALID,24.0311,VALID,154,VALID,0.158203,
2011-12-26, 01:51:04,VALID,997.96,VALID,0,VALID,93.3331,VALID,0.104696,VALID,24.0329,VALID,154,VALID,0,
2011-12-26, 01:52:04,VALID,997.906,VALID,0,VALID,93.3637,VALID,0,VALID,24.0116,VALID,154,VALID,0,
2011-12-26, 01:53:04,VALID,997.924,VALID,0,VALID,93.4094,VALID,0,VALID,24.0116,VALID,154,VALID,0,
2011-12-26, 01:54:04,VALID,997.917,VALID,0,VALID,93.4476,VALID,0,VALID,24.0134,VALID,154,VALID,0,
2011-12-26, 01:55:04,VALID,997.945,VALID,0,VALID,93.4705,VALID,0,VALID,23.9921,VALID,154,VALID,0,
2011-12-26, 01:56:04,VALID,997.912,VALID,0,VALID,93.4552,VALID,0,VALID,23.9921,VALID,154,VALID,0,
2011-12-26, 01:57:04,VALID,997.921,VALID,0,VALID,93.4781,VALID,0,VALID,23.9726,VALID,154,VALID,0,
2011-12-26, 01:58:04,VALID,997.977,VALID,0,VALID,93.4705,VALID,0,VALID,23.9744,VALID,154,VALID,0,
2011-12-26, 01:59:04,VALID,997.967,VALID,0,VALID,93.4781,VALID,0,VALID,23.9531,VALID,154,VALID,0,
2011-12-26, 02:00:04,VALID,997.991,VALID,0,VALID,93.5086,VALID,0,VALID,23.9744,VALID,154,VALID,0,
2011-12-26, 02:01:04,VALID,998.001,VALID,0,VALID,93.5391,VALID,0,VALID,23.9336,VALID,154,VALID,0,
2011-12-26, 02:02:04,VALID,997.993,VALID,0,VALID,93.5239,VALID,0,VALID,23.9354,VALID,154,VALID,0,
2011-12-26, 02:03:04,VALID,998.022,VALID,0,VALID,93.5773,VALID,0,VALID,23.914,VALID,154,VALID,0,
2011-12-26, 02:04:04,VALID,998.029,VALID,0,VALID,93.5926,VALID,0,VALID,23.914,VALID,154,VALID,0,
2011-12-26, 02:05:04,VALID,998.011,VALID,0,VALID,93.6231,VALID,0,VALID,23.9354,VALID,154,VALID,0,
2011-12-26, 02:06:04,VALID,998.003,VALID,0,VALID,93.6307,VALID,0,VALID,23.914,VALID,154,VALID,0,
2011-12-26, 02:07:04,VALID,998.028,VALID,0,VALID,93.6765,VALID,0,VALID,23.9549,VALID,154,VALID,0,
2011-12-26, 02:08:04,VALID,998.006,VALID,0,VALID,93.6994,VALID,0,VALID,23.9336,VALID,154,VALID,0,
2011-12-26, 02:09:04,VALID,998.019,VALID,0,VALID,93.707,VALID,0,VALID,23.9531,VALID,154,VALID,0,
2011-12-26, 02:10:04,VALID,997.958,VALID,0,VALID,93.707,VALID,0,VALID,23.9549,VALID,154,VALID,0,
2011-12-26, 02:11:04,VALID,997.96,VALID,0,VALID,93.7375,VALID,0,VALID,23.9354,VALID,154,VALID,0,
2011-12-26, 02:12:04,VALID,997.942,VALID,0,VALID,93.7375,VALID,0,VALID,23.9354,VALID,154,VALID,0,
2011-12-26, 02:13:04,VALID,997.922,VALID,0,VALID,93.7451,VALID,0,VALID,23.9549,VALID,154,VALID,0,
2011-12-26, 02:14:04,VALID,997.884,VALID,0,VALID,93.7375,VALID,0,VALID,23.9762,VALID,154,VALID,0,
2011-12-26, 02:15:04,VALID,997.892,VALID,0,VALID,93.7528,VALID,0,VALID,23.9549,VALID,124,VALID,0.577344,
2011-12-26, 02:16:04,VALID,997.857,VALID,0,VALID,93.7604,VALID,0,VALID,23.9744,VALID,123,VALID,0.635938,
2011-12-26, 02:17:04,VALID,997.852,VALID,0,VALID,93.7604,VALID,0,VALID,23.9549,VALID,123,VALID,0.414844,
2011-12-26, 02:18:04,VALID,997.85,VALID,0,VALID,93.7528,VALID,0,VALID,23.9744,VALID,123,VALID,0.1625,
2011-12-26, 02:19:04,VALID,997.85,VALID,0,VALID,93.7604,VALID,0,VALID,23.9744,VALID,123,VALID,0,
2011-12-26, 02:20:04,VALID,997.833,VALID,0,VALID,93.6994,VALID,0,VALID,23.9549,VALID,123,VALID,0,
2011-12-26, 02:21:04,VALID,997.814,VALID,0,VALID,93.7146,VALID,0,VALID,23.9762,VALID,123,VALID,0.0410156,
2011-12-26, 02:22:04,VALID,997.797,VALID,0,VALID,93.6841,VALID,0,VALID,23.9549,VALID,123,VALID,0,
2011-12-26, 02:23:04,VALID,997.758,VALID,0,VALID,93.6612,VALID,0,VALID,23.9549,VALID,123,VALID,0,
2011-12-26, 02:24:04,VALID,997.771,VALID,0,VALID,93.646,VALID,0,VALID,23.9354,VALID,123,VALID,0,
2011-12-26, 02:25:04,VALID,997.715,VALID,0,VALID,93.6383,VALID,0,VALID,23.9336,VALID,123,VALID,0.285937,
2011-12-26, 02:26:04,VALID,997.705,VALID,0,VALID,93.6231,VALID,0,VALID,23.9336,VALID,123,VALID,0.310156,
2011-12-26, 02:27:04,VALID,997.672,VALID,0,VALID,93.6154,VALID,0,VALID,23.9336,VALID,123,VALID,0.283594,
2011-12-26, 02:28:04,VALID,997.699,VALID,0,VALID,93.6078,VALID,0,VALID,23.9531,VALID,123,VALID,0.285937,
2011-12-26, 02:29:04,VALID,997.698,VALID,0,VALID,93.6002,VALID,0,VALID,23.9531,VALID,123,VALID,0.197266,
2011-12-26, 02:30:04,VALID,997.713,VALID,0,VALID,93.5926,VALID,0,VALID,23.9513,VALID,123,VALID,0.214062,
2011-12-26, 02:31:04,VALID,997.748,VALID,0,VALID,93.5849,VALID,0.104696,VALID,23.9726,VALID,123,VALID,0.00351562,
2011-12-26, 02:32:04,VALID,997.782,VALID,0,VALID,93.5773,VALID,0,VALID,23.9726,VALID,123,VALID,0,
2011-12-26, 02:33:04,VALID,997.805,VALID,0,VALID,93.5544,VALID,0,VALID,23.9513,VALID,123,VALID,0.295312,
2011-12-26, 02:34:04,VALID,997.81,VALID,0,VALID,93.5391,VALID,0,VALID,23.9744,VALID,123,VALID,0.498828,
2011-12-26, 02:35:04,VALID,997.84,VALID,0,VALID,93.5315,VALID,0,VALID,23.9336,VALID,68,VALID,0.662109,
2011-12-26, 02:36:04,VALID,997.879,VALID,0,VALID,93.5468,VALID,0,VALID,23.9336,VALID,65,VALID,0.635938,
2011-12-26, 02:37:04,VALID,997.918,VALID,0,VALID,93.5773,VALID,0,VALID,23.914,VALID,52,VALID,0.754687,
2011-12-26, 02:38:04,VALID,997.929,VALID,0,VALID,93.6154,VALID,0.104696,VALID,23.914,VALID,40,VALID,0.580859,
2011-12-26, 02:39:04,VALID,997.939,VALID,0,VALID,93.6383,VALID,0,VALID,23.9354,VALID,40,VALID,0.352734,
2011-12-26, 02:40:04,VALID,997.973,VALID,0,VALID,93.6688,VALID,0,VALID,23.8945,VALID,32,VALID,0.359375,
2011-12-26, 02:41:04,VALID,997.938,VALID,0,VALID,93.7146,VALID,0,VALID,23.914,VALID,29,VALID,0.300391,
2011-12-26, 02:42:04,VALID,997.965,VALID,0,VALID,93.7299,VALID,0,VALID,23.914,VALID,29,VALID,0.155078,
2011-12-26, 02:43:04,VALID,997.957,VALID,0,VALID,93.7604,VALID,0,VALID,23.914,VALID,29,VALID,0,
2011-12-26, 02:44:04,VALID,997.947,VALID,0,VALID,93.7757,VALID,0,VALID,23.8945,VALID,29,VALID,0,
2011-12-26, 02:45:04,VALID,997.963,VALID,0,VALID,93.7985,VALID,0,VALID,23.914,VALID,29,VALID,0,
2011-12-26, 02:46:04,VALID,997.968,VALID,0,VALID,93.7909,VALID,0,VALID,23.9159,VALID,29,VALID,0.156641,
2011-12-26, 02:47:04,VALID,998.02,VALID,0,VALID,93.8062,VALID,0,VALID,23.8945,VALID,29,VALID,0.194141,
2011-12-26, 02:48:04,VALID,997.994,VALID,0,VALID,93.8062,VALID,0,VALID,23.8963,VALID,29,VALID,0.182031,
2011-12-26, 02:49:04,VALID,998.01,VALID,0,VALID,93.8214,VALID,0,VALID,23.875,VALID,29,VALID,0.141016,
2011-12-26, 02:50:04,VALID,998.022,VALID,0,VALID,93.8367,VALID,0,VALID,23.8555,VALID,29,VALID,0.182812,
2011-12-26, 02:51:04,VALID,998.03,VALID,0,VALID,93.8596,VALID,0,VALID,23.8768,VALID,29,VALID,0.246094,
2011-12-26, 02:52:04,VALID,998.02,VALID,0,VALID,93.8748,VALID,0,VALID,23.8573,VALID,29,VALID,0.151562,
2011-12-26, 02:53:04,VALID,998.013,VALID,0,VALID,93.8672,VALID,0,VALID,23.836,VALID,29,VALID,0.0304688,
2011-12-26, 02:54:04,VALID,998.02,VALID,0,VALID,93.8825,VALID,0,VALID,23.8165,VALID,29,VALID,0.00429688,
2011-12-26, 02:55:04,VALID,998.012,VALID,0,VALID,93.9206,VALID,0,VALID,23.8183,VALID,29,VALID,0.209766,
2011-12-26, 02:56:04,VALID,998.034,VALID,0,VALID,93.9054,VALID,0,VALID,23.7988,VALID,29,VALID,0,
2011-12-26, 02:57:04,VALID,998.05,VALID,0,VALID,93.9206,VALID,0,VALID,23.8201,VALID,29,VALID,0,
2011-12-26, 02:58:04,VALID,998.041,VALID,0,VALID,93.9206,VALID,0,VALID,23.7988,VALID,29,VALID,0,
2011-12-26, 02:59:04,VALID,998.087,VALID,0,VALID,93.9359,VALID,0,VALID,23.8201,VALID,29,VALID,0,
2011-12-26, 03:00:04,VALID,998.117,VALID,0,VALID,93.9588,VALID,0,VALID,23.7988,VALID,29,VALID,0,
2011-12-26, 03:01:04,VALID,998.147,VALID,0,VALID,93.9664,VALID,0,VALID,23.8006,VALID,29,VALID,0,
2011-12-26, 03:02:04,VALID,998.16,VALID,0,VALID,93.974,VALID,0,VALID,23.8006,VALID,29,VALID,0,
2011-12-26, 03:03:04,VALID,998.169,VALID,0,VALID,93.9817,VALID,0,VALID,23.7811,VALID,29,VALID,0,
2011-12-26, 03:04:04,VALID,998.149,VALID,0,VALID,94.0045,VALID,0,VALID,23.8006,VALID,29,VALID,0,
2011-12-26, 03:05:04,VALID,998.164,VALID,0,VALID,94.0274,VALID,0,VALID,23.8201,VALID,29,VALID,0,
2011-12-26, 03:06:04,VALID,998.151,VALID,0,VALID,94.0198,VALID,0,VALID,23.8006,VALID,29,VALID,0,
2011-12-26, 03:07:04,VALID,998.171,VALID,0,VALID,94.0274,VALID,0,VALID,23.7988,VALID,29,VALID,0,
2011-12-26, 03:08:04,VALID,998.177,VALID,0,VALID,94.0274,VALID,0,VALID,23.8201,VALID,29,VALID,0,
2011-12-26, 03:09:04,VALID,998.161,VALID,0,VALID,94.0427,VALID,0,VALID,23.8201,VALID,29,VALID,0,
2011-12-26, 03:10:04,VALID,998.181,VALID,0,VALID,94.0503,VALID,0,VALID,23.8183,VALID,29,VALID,0,
2011-12-26, 03:11:04,VALID,998.169,VALID,0,VALID,94.0656,VALID,0,VALID,23.8396,VALID,29,VALID,0,
2011-12-26, 03:12:04,VALID,998.148,VALID,0,VALID,94.0503,VALID,0,VALID,23.8378,VALID,29,VALID,0,
2011-12-26, 03:13:04,VALID,998.138,VALID,0,VALID,94.0656,VALID,0,VALID,23.8591,VALID,29,VALID,0,
2011-12-26, 03:14:04,VALID,998.181,VALID,0,VALID,94.0503,VALID,0,VALID,23.8396,VALID,29,VALID,0,
2011-12-26, 03:15:04,VALID,998.171,VALID,0,VALID,94.0503,VALID,0,VALID,23.8378,VALID,29,VALID,0,
2011-12-26, 03:16:04,VALID,998.172,VALID,0,VALID,94.0656,VALID,0,VALID,23.8396,VALID,29,VALID,0,
2011-12-26, 03:17:04,VALID,998.167,VALID,0,VALID,94.0503,VALID,0,VALID,23.8378,VALID,29,VALID,0,
2011-12-26, 03:18:04,VALID,998.131,VALID,0,VALID,94.0503,VALID,0,VALID,23.8378,VALID,29,VALID,0,
2011-12-26, 03:19:04,VALID,998.102,VALID,0,VALID,94.0122,VALID,0,VALID,23.8786,VALID,29,VALID,0,
2011-12-26, 03:20:04,VALID,998.114,VALID,0,VALID,93.9969,VALID,0,VALID,23.8573,VALID,29,VALID,0,
2011-12-26, 03:21:04,VALID,998.12,VALID,0,VALID,93.9969,VALID,0,VALID,23.8982,VALID,29,VALID,0,
2011-12-26, 03:22:04,VALID,998.089,VALID,0,VALID,93.974,VALID,0,VALID,23.8963,VALID,29,VALID,0,
2011-12-26, 03:23:04,VALID,998.081,VALID,0,VALID,93.9664,VALID,0,VALID,23.9177,VALID,29,VALID,0,
2011-12-26, 03:24:04,VALID,998.086,VALID,0,VALID,93.9283,VALID,0,VALID,23.9372,VALID,29,VALID,0,
2011-12-26, 03:25:04,VALID,998.089,VALID,0,VALID,93.8977,VALID,0,VALID,23.9354,VALID,29,VALID,0,
2011-12-26, 03:26:04,VALID,998.095,VALID,0,VALID,93.8748,VALID,0,VALID,23.9354,VALID,29,VALID,0,
2011-12-26, 03:27:04,VALID,998.074,VALID,0,VALID,93.8443,VALID,0,VALID,23.9336,VALID,29,VALID,0,
2011-12-26, 03:28:04,VALID,998.071,VALID,0,VALID,93.8062,VALID,0,VALID,23.9549,VALID,32,VALID,0,
2011-12-26, 03:29:04,VALID,998.076,VALID,0,VALID,93.8138,VALID,0,VALID,23.9549,VALID,153,VALID,0.994531,
2011-12-26, 03:30:04,VALID,998.056,VALID,0,VALID,93.8291,VALID,0,VALID,23.9726,VALID,152,VALID,0.953125,
2011-12-26, 03:31:04,VALID,998.057,VALID,0,VALID,93.8214,VALID,0,VALID,24.0134,VALID,152,VALID,0.946094,
2011-12-26, 03:32:04,VALID,998.08,VALID,0,VALID,93.8214,VALID,0.104696,VALID,23.9921,VALID,152,VALID,0.740234,
2011-12-26, 03:33:04,VALID,998.057,VALID,0,VALID,93.8291,VALID,0,VALID,24.0311,VALID,154,VALID,0.740234,
2011-12-26, 03:34:04,VALID,998.053,VALID,0,VALID,93.8291,VALID,0,VALID,24.0311,VALID,161,VALID,0.736719,
2011-12-26, 03:35:04,VALID,998.045,VALID,0,VALID,93.8062,VALID,0,VALID,24.0506,VALID,175,VALID,0.826953,
2011-12-26, 03:36:04,VALID,998.034,VALID,0,VALID,93.8062,VALID,0,VALID,24.072,VALID,184,VALID,0.833203,
2011-12-26, 03:37:04,VALID,998.031,VALID,0,VALID,93.7833,VALID,0,VALID,24.0311,VALID,189,VALID,1.09492,
2011-12-26, 03:38:04,VALID,998.023,VALID,0,VALID,93.7451,VALID,0,VALID,24.0311,VALID,189,VALID,1.08906,
2011-12-26, 03:39:04,VALID,998.006,VALID,0,VALID,93.7299,VALID,0,VALID,24.0506,VALID,186,VALID,1.06953,
2011-12-26, 03:40:04,VALID,998.039,VALID,0,VALID,93.6765,VALID,0.104696,VALID,24.0506,VALID,181,VALID,0.772266,
2011-12-26, 03:41:04,VALID,998.034,VALID,0,VALID,93.6688,VALID,0,VALID,24.072,VALID,181,VALID,1.06875,
2011-12-26, 03:42:04,VALID,998.057,VALID,0,VALID,93.6078,VALID,0,VALID,24.0915,VALID,180,VALID,0.886328,
2011-12-26, 03:43:04,VALID,998.026,VALID,0,VALID,93.5849,VALID,0,VALID,24.0701,VALID,179,VALID,1.2043,
2011-12-26, 03:44:04,VALID,998.039,VALID,0,VALID,93.5315,VALID,0,VALID,24.0701,VALID,179,VALID,1.29531,
2011-12-26, 03:45:04,VALID,998.039,VALID,0,VALID,93.5086,VALID,0,VALID,24.0897,VALID,171,VALID,1.37695,
2011-12-26, 03:46:04,VALID,998.05,VALID,0,VALID,93.4857,VALID,0,VALID,24.1092,VALID,162,VALID,1.21211,
2011-12-26, 03:47:04,VALID,998.055,VALID,0,VALID,93.4094,VALID,0,VALID,24.1092,VALID,172,VALID,0.965625,
2011-12-26, 03:48:04,VALID,998.063,VALID,0,VALID,93.4018,VALID,0,VALID,24.15,VALID,165,VALID,0.941406,
2011-12-26, 03:49:04,VALID,998.071,VALID,0,VALID,93.3866,VALID,0,VALID,24.1287,VALID,160,VALID,1.03867,